Regional Weather Roundup
Issued by NWS Upton, NY

Current Version | Previous Version | Text Only | Print | Product List | Glossary Off
Versions: 1 2 3 4 5 6 7 8 9 10 11 12 13 14 15 16 17 18 19 20 21 22 23 24 25 26 27 28 29 30 31 32 33 34 35 36 37 38 39 40 41 42 43 44 45 46 47 48 49 50

000
ASUS41 KOKX 251307
RWROKX

REGIONAL WEATHER ROUNDUP
NATIONAL WEATHER SERVICE NEW YORK NY
900 AM EDT SAT APR 25 2015

NOTE: "FAIR" INDICATES FEW OR NO CLOUDS BELOW 12,000 FEET WITH NO
SIGNIFICANT WEATHER AND/OR OBSTRUCTIONS TO VISIBILITY.

NYZ071-072-176-178-NJZ106-104-251400-
NEW YORK CITY METRO AREA


CITY           SKY/WX    TMP DP  RH WIND       PRES   REMARKS
CENTRAL PARK   SUNNY     43  22  43 VRB5      29.91F
LAGUARDIA APRT MOSUNNY   42  23  46 NW13      29.88F
KENNEDY INTL   PTSUNNY   45  23  42 NW9       29.89F
NEWARK/LIBERTY PTSUNNY   44  23  43 W10       29.91F
BRNX BOT. GARD   N/A     43  23  45 W12       29.90S
TETERBORO      SUNNY     43  23  45 W12       29.89F
$$

NYZ177-179-078>081-251400-
LONG ISLAND NEW YORK

CITY           SKY/WX    TMP DP  RH WIND       PRES   REMARKS
FARMINGDALE    SUNNY     44  23  43 NW8       29.88F
ISLIP          MOSUNNY   44  22  41 NW12      29.85F
SHIRLEY        SUNNY     43  23  45 W16       29.86F
WESTHAMPTON    SUNNY     44  22  41 NW14G26   29.86F
MONTAUK POINT    N/A     42  25  50 W12G20    29.84F
$$

NYZ052-065-067-251400-
HUDSON VALLEY

CITY           SKY/WX    TMP DP  RH WIND       PRES   REMARKS
WHITE PLAINS   SUNNY     41  22  46 NW13      29.85F
NEWBURGH       SUNNY     39  25  56 W12       29.89  WCI  32
MONTGOMERY     SUNNY     40  24  53 W8        29.87F WCI  34
POUGHKEEPSIE   SUNNY     42  23  46 W6        29.87F
ALBANY         MOSUNNY   41  22  46 NW14      29.87F
$$

NJZ001-105-106-008-010-013-015-019>022-104-251400-
NEW JERSEY

CITY           SKY/WX    TMP DP  RH WIND       PRES   REMARKS
NEWARK/LIBERTY PTSUNNY   44  23  43 W10       29.91F
TETERBORO      SUNNY     43  23  45 W12       29.89F
CALDWELL       MOSUNNY   42  22  44 NW10      29.91F
MORRISTOWN     MOSUNNY   41  23  48 NW7G16    29.91F
SOMERVILLE     MOSUNNY   43  23  45 NW8       29.91F
SUSSEX         SUNNY     40  23  50 MISG      29.90F
ANDOVER          N/A     40  23  50 VRB5      29.91F
TRENTON        MOSUNNY   42  22  44 NW10      29.92F
MILLVILLE      PTSUNNY   45  25  45 NW8       29.96R
ATLANTIC CITY  MOSUNNY   47  24  40 NW12      29.94S
WRIGHTSTOWN    PTSUNNY   44  23  43 NW13      29.91F
TOMS RIVER     MOSUNNY   45  23  42 NW16      29.93F
BELMAR         MOSUNNY   43  21  42 NW14      29.90F
$$

PAZ047>061-062-071-251400-
EASTERN PENNSYLVANIA

CITY           SKY/WX    TMP DP  RH WIND       PRES   REMARKS
PHILADELPHIA   CLOUDY    45  22  40 NW10      29.96S
ALLENTOWN      PTSUNNY   42  23  46 NW7       29.93F
SCRANTON       SUNNY     39  23  52 NW8       29.91S WCI  33
$$

CTZ002-004>006-009-010-012-RIZ004-006-007-MAZ004-011-015-251400-
SOUTHERN NEW ENGLAND
 IN CT

CITY           SKY/WX    TMP DP  RH WIND       PRES   REMARKS
BRADLEY INTL   MOSUNNY   43  22  43 NW13G21   29.82F
HARTFORD       SUNNY     42  23  46 N10       29.84F
DANBURY        SUNNY     40  20  44 NW9       29.87F WCI  34
WTRBRY/OXFORD  SUNNY     39  19  45 N9        29.85F WCI  33
BRIDGEPORT     SUNNY     42  23  46 NW9       29.87F
MERIDEN        SUNNY     43  22  43 NW8G18    29.85F
NEW HAVEN      SUNNY     41  23  48 NW12G18   29.86F
CHESTER        FAIR      39  23  52 NW10G17   29.83F WCI  32
GROTON         SUNNY     43  22  43 NW14      29.82F
WILLIMANTIC    SUNNY     41  23  48 NW12      29.82F

 IN RI

CITY           SKY/WX    TMP DP  RH WIND       PRES   REMARKS
PROVIDENCE     MOSUNNY   42  23  46 W14G22    29.80F
BLOCK ISLAND   SUNNY     41  25  52 W15       29.82F
WESTERLY       SUNNY     42  23  46 NW8       29.82F

 IN MA

CITY           SKY/WX    TMP DP  RH WIND       PRES   REMARKS
BOSTON         MOSUNNY   43  24  47 NW13      29.78F
WORCESTER      SUNNY     38  21  50 NW13      29.75F WCI  30
WESTFIELD      SUNNY     43  22  43 NW12G21   29.82F
PROVINCETOWN   SUNNY    N/A N/A N/A W14       29.77S
NANTUCKET      PTSUNNY   44  24  45 NW17      29.78F
$$

ANZ330-335-338-340-345-350-353-355-251400-
COASTAL MARINE OBSERVATIONS


STATION/POSITION TIME  SKY/WX   TEMP    WIND        PRES    VSBY  WAVE
                                AIR SEA DIR/SP/G                  HT/PER
                 (UTC)          (F)     (DEG/KT/KT) (MB)    (MI)  (FT/S)
NY HARB ENTRANCE 1250            41 44  290/ 16/ 19 1011.8          2/ 4
4S FIRE IS       1203               43                N/A           2/ 4
20S FIRE ISLAND  1250            40 43  310/ 17/ 19 1011.9          3/ 5
23SW MTP         NOT AVBL
HUDSON CANYON    NOT AVBL
EXECUTION ROCKS  NOT AVBL
WESTERN LI SOUND NOT AVBL
CENTRAL LI SOUND NOT AVBL
EASTERN LI SOUND 1200            41     280/ 14/ 17   N/A
ROBBINS REEF     1200            39     300/ 17/ 19 1012.0
$$


>>>>>>>>>>>>>>>>>>>>>>>>>>>> KEY <<<<<<<<<<<<<<<<<<<<<<<<<<<
>                                                          <
>     SKY/WX - SKY CONDITION/PRESENT WEATHER               <
>     TMP    - TEMPERATURE IN FAHRENHEIT                   <
>     DP     - DEWPOINT IN FAHRENHEIT                      <
>     RH     - RELATIVE HUMIDITY IN PERCENT                <
>     WIND   - DIRECTION AND SPEED IN MPH                  <
>     PRES   - MEAN SEA LEVEL PRESSURE IN INCHES OF HG     <
>     WCI    - WIND CHILL INDEX                            <
>     VSB    - VISIBILITY IN MILES                         <
>     HX     - HEAT INDEX                                  <
>     TC     - TEMPERATURE IN CELSIUS                      <
>     VRB    - VARIABLE WIND DIRECTION                     <
>                                                          <
>>>>>>>>>>>>>>>>>>>>>>>>>>>> KEY <<<<<<<<<<<<<<<<<<<<<<<<<<<





USA.gov is the U.S. government's official web portal to all federal, state and local government web resources and services.